Location: Chmeln�
(49.6483°N, 14.9871°E)
Time: 14:27:32
(UTC+00:00)

Cosmos 1626 - Pass Details

Date: 18 September 2020
Orbit: 490 x 495 km, 82.5° (Epoch: 23 October)

Event Time Altitude Azimuth Distance (km) Brightness Sun altitude
Rises 20:13:03 0° 342° (NNW) 2,590 6.7 -28.4°
Reaches altitude 10° 20:15:17 10° 333° (NNW) 1,701 5.7 -28.6°
Enters shadow 20:17:30 27° 305° (NW) 987 4.2 -28.9°
